[Iaude] MPEC B148: 2023 QN [a=1.96,e=0.37,i=38.5,H=18.96]
    mpec at marsden.cfa.harvard.edu 
    mpec at marsden.cfa.harvard.edu
       
    Sun Jan 28 09:12:37 EST 2024
    
    
  
M.P.E.C. 2024-B148                             Issued 2024 January 28, 14:11 UT
     The Minor Planet Electronic Circulars contain information on unusual
         minor planets, routine data on comets and natural satellites,
         and occasional editorial announcements.  They are published
    on behalf of Division F of the International Astronomical Union by the
          Minor Planet Center, Smithsonian Astrophysical Observatory,
                          Cambridge, MA 02138, U.S.A.
			  
             Prepared using the Tamkin Foundation Computer Network
                              MPC at CFA.HARVARD.EDU
            URL https://www.minorplanetcenter.net/    ISSN 1523-6714
                                    2023 QN                                     
                           Revision to MPEC 2023-Q28                            
Additional Observations:
     K23Q00N  C2012 07 30.52077120 46 45.218+23 34 15.39         20.56GVEB148F51
     K23Q00N  C2012 07 30.53157720 46 44.444+23 33 57.49         20.43GVEB148F51
     K23Q00N  C2012 08 11.48384620 32 17.301+16 14 06.84         19.42GVEB148F51
     K23Q00N  C2012 08 11.49382220 32 16.489+16 13 38.68         19.43GVEB148F51
     K23Q00N  C2012 08 11.50337620 32 15.712+16 13 11.55         19.40GVEB148F51
     K23Q00N  C2012 08 11.51333620 32 14.904+16 12 43.16         19.16GVEB148F51
     K23Q00N  C2012 08 21.32702720 20 07.626+07 10 41.25         19.01GVEB148F51
     K23Q00N  C2012 08 21.34057020 20 06.606+07 09 50.29         19.20GVEB148F51
     K23Q00N  C2012 08 21.34801520 20 06.038+07 09 22.25         18.77GVEB148F51
     K23Q00N  C2015 06 23.57820101 30 18.717+05 20 24.73         21.44GVEB148F51
     K23Q00N  C2015 06 23.58334401 30 19.827+05 20 22.13         21.95GVEB148F51
     K23Q00N  C2015 06 23.58853901 30 20.960+05 20 19.75         21.93GVEB148F51
     K23Q00N  C2015 06 23.59368701 30 22.034+05 20 17.56         21.97GVEB148F51
     K23Q00N  C2015 11 30.64070009 18 50.789-30 38 56.52         21.15GVEB148F51
     K23Q00N  C2015 11 30.64717209 18 50.998-30 38 57.60         20.90GVEB148F51
     K23Q00N  C2016 02 25.36239408 11 45.928+00 06 05.52         21.90GVEB148F51
     K23Q00N  C2016 02 25.37445408 11 45.537+00 06 30.59         21.49GVEB148F51
     K23Q00N  C2016 03 04.29221808 09 03.381+04 24 06.00         21.24GVEB148F51
     K23Q00N  C2016 03 04.30400408 09 03.211+04 24 27.47         20.77GVEB148F51
     K23Q00N  C2016 03 04.32752108 09 02.892+04 25 10.46         21.19GVEB148F51
     K23Q00N  C2016 03 05.32634508 08 53.227+04 55 14.87         21.23GVEB148F51
     K23Q00N  C2016 03 05.33847708 08 53.090+04 55 36.63         21.63GVEB148F51
     K23Q00N  C2016 03 25.35295308 13 19.502+12 59 19.39         21.79GVEB148F51
     K23Q00N KC2017 05 29.41155315 36 33.772+38 36 52.12         24.28GVEB148F51
     K23Q00N KC2018 12 31.62966111 43 18.388-02 35 28.53         23.40GVEB148F51
     K23Q00N  C2019 01 15.53322511 47 45.091+00 29 31.87         22.62GVEB148F51
     K23Q00N  C2019 01 15.54564711 47 45.117+00 29 43.13         22.48GVEB148F51
     K23Q00N  C2019 01 16.58254111 47 47.798+00 45 47.63         22.75GVEB148F52
     K23Q00N  C2019 01 16.60592811 47 47.732+00 46 09.79         22.39GVEB148F52
     K23Q00N  C2019 02 04.52973411 42 08.477+06 52 44.06         21.64GVEB148F51
     K23Q00N  C2019 04 08.28518910 41 19.598+27 17 47.49         22.51GVEB148F51
     K23Q00N  C2020 07 14.29782717 02 16.842+32 55 00.75         22.63GVEB148F52
     K23Q00N  C2020 07 14.31054217 02 16.123+32 54 47.87         22.57GVEB148F52
     K23Q00N  C2020 07 23.34479016 55 25.219+30 05 10.19         22.50GVEB148F52
     K23Q00N  C2020 07 23.35794916 55 24.707+30 04 54.17         22.14GVEB148F52
     K23Q00N  C2020 08 10.35035916 50 49.370+23 07 04.62         22.00GVEB148F52
     K23Q00N  C2020 08 16.31387916 51 57.567+20 33 56.80         21.91GVEB148F52
     K23Q00N  C2020 08 16.32683616 51 57.796+20 33 36.37         21.71GVEB148F52
     K23Q00N  C2020 09 05.25375917 04 33.212+11 44 55.66         23.40GVEB148F52
     K23Q00N  C2020 09 05.25964217 04 33.546+11 44 46.82         22.92GVEB148F52
Observer details:
F51 Pan-STARRS 1, Haleakala.  Observers J. Herman, T. Lowe, P. Minguez, A.
    Schultz, I. Smith.  Measurers K. Chambers, T. de Boer, J. Fairlamb, H.
    Gao, M. Huber, C.-C. Lin, E. Magnier, Y. Ramanjooloo, R. Wainscoat, R.
    Weryk.  1.8-m Ritchey-Chretien + CCD.
F52 Pan-STARRS 2, Haleakala.  Observers J. Herman, T. Lowe, P. Minguez, A.
    Schultz, I. Smith.  Measurers K. Chambers, T. de Boer, J. Fairlamb, H.
    Gao, M. Huber, C.-C. Lin, E. Magnier, Y. Ramanjooloo, R. Wainscoat, R.
    Weryk.  1.8-m Ritchey-Chretien + CCD.
First and last observations above in comparison with prediction:
Residuals in seconds of arc (or two decimals in degrees), reference and Delta-T
120730 F51 0.10- 0.02-    200905 F52 0.01- 0.00-    MPO782828   -0.02 days
Orbital elements:
2023 QN                                                  Earth MOID = 0.3543 AU
Epoch 2023 Sept. 13.0 TT = JDT 2460200.5                Veres                   
M 335.13223              (2000.0)            P               Q                  
n   0.35865545     Peri.  233.97097     +0.80722537     -0.52244686             
a   1.9619342      Node   153.80784     +0.48317089     +0.85216227             
e   0.3686671      Incl.   38.48169     -0.33901783     -0.02947442             
P   2.75           H   18.96          G   0.15           U   0                  
Residuals in seconds of arc
120730 F51  0.1+  0.0     230818 L51  0.3+  0.2-    230822 196  0.1-  0.0
120730 F51  0.0   0.1-    230818 L51  0.1+  0.2-    230823 K87  0.3-  0.2+
120811 F51  0.1+  0.0     230818 L51  0.2-  0.2-    230823 K87  0.1+  0.2+
120811 F51  0.1+  0.0     230818 M49  0.1-  0.2+    230823 K87  0.2+  0.1+
120811 F51  0.1+  0.0     230818 M49  0.3-  0.1+    230823 L51  0.1+  0.1-
120811 F51  0.0   0.2-    230818 M49  0.3-  0.0     230823 L51  0.2+  0.0
120821 F51  0.0   0.1-    230818 033  0.1-  0.2+    230823 L51  0.0   0.0
120821 F51  0.1+  0.1+    230818 033  0.0   0.4+    230824 U52  0.5-  0.6+
120821 F51  0.1+  0.1+    230818 033  0.1+  0.2+    230824 U52  0.2+  0.3+
150623 F51  0.3-  0.1+    230818 033  0.0   0.0     230824 U52  0.9+  1.1-
150623 F51  0.2-  0.1-    230818 M21  0.2-  0.1-    230824 H36  0.2+  0.4+
150623 F51  0.1+  0.0     230818 B72  0.3-  0.2+    230824 H36  0.5+  0.1+
150623 F51  0.4-  0.2+    230818 B72  0.2+  0.1+    230824 H36  0.3+  0.1-
151130 F51  0.0   0.1+    230818 B72  0.3-  0.1-    230825 H21  0.2+  0.3+
151130 F51  0.2+  0.2-    230818 M21  0.1+  0.1-    230825 H21  0.2+  0.2+
160225 F51  0.1+  0.1-    230818 C95  0.2+  0.1+    230825 H21  0.2-  0.4-
160225 F51  0.2+  0.0     230818 M45  0.0   0.1+    230825 M45  0.1-  0.0
160304 F51  0.1-  0.0     230818 C95  0.0   0.1-    230825 M45  0.2-  0.3+
160304 F51  0.2-  0.1-    230818 M45  0.0   0.2-    230825 M45  0.1+  0.1+
160304 F51  0.1-  0.0     230818 K87  0.3-  0.2-    230825 203  0.2-  0.2-
160305 F51  0.0   0.0     230818 C95  0.0   0.1-    230825 203 (0.2-  1.0-)
160305 F51  0.0   0.1+    230818 595  0.1-  0.1+    230826 U52  1.1-  0.1-
160325 F51  0.1+  0.1-    230818 M45  0.1-  0.1+    230826 U52  1.2+  1.0+
170529 F51  0.3-  0.1-    230818 204  0.2+  0.1+    230826 M45  0.1+  0.1+
181231 F51  0.2-  0.1-    230818 595  0.5-  0.2-    230826 M45  0.3+  0.1-
190115 F51  0.0   0.0     230818 K87  0.1+  0.3-    230826 M45  0.3-  0.2-
190115 F51  0.1+  0.1-    230818 L65  0.2+  0.2-    230901 M45  0.2+  0.4+
190116 F52  0.4+  0.0     230818 204  0.1+  0.1-    230901 M45  0.1-  0.2+
190116 F52  0.4-  0.1+    230818 595  0.5-  0.4+    230902 K74  0.0   0.3-
190204 F51  0.3-  0.3+    230818 204  0.1-  0.0     230902 K74  0.2-  0.1-
190408 F51  0.1+  0.0     230818 K87  0.4+  0.3-    230902 K74  0.3+  0.2-
200714 F52  0.2-  0.0     230818 L65 (0.7+  1.0-)   230902 K74  0.1+  0.2+
200714 F52  0.1-  0.1-    230818 K83  0.0   0.5+    230902 204  0.3+  0.1-
200723 F52  0.0   0.4-    230818 K83  0.0   0.2+    230902 204  0.0   0.2-
200723 F52  0.1-  0.0     230818 L34  0.1-  0.1+    230903 F51  0.0   0.0
200810 F52  0.2-  0.4-    230818 K83  0.3-  0.2-    230903 F51  0.0   0.0
200816 F52  0.0   0.0     230818 L34  0.2+  0.1+    230903 F51  0.0   0.1+
200816 F52  0.3+  0.1-    230818 L34  0.4+  0.5-    230903 F51  0.0   0.0
200905 F52  0.0   0.2-    230819 L34  0.4-  0.5-    230903 F51  0.0   0.0
200905 F52  0.2+  0.3+    230819 H21  0.3-  0.6+    230903 F51  0.1-  0.1-
230817 L51  0.1+  0.2+    230819 H21  0.3-  0.6+    230904 H21  0.0   0.1+
230817 L51  0.1-  0.1+    230819 H21  0.0   0.5+    230904 H21  0.0   0.0
230817 L51  0.0   0.4-    230819 H21  0.2-  0.5+    230904 H21  0.2+  0.1+
230817 C40  0.3-  0.5-    230819 J22  0.1-  0.7-    230904 H21  0.6+  0.1+
230817 C40  0.3-  0.1-    230819 J22  0.5+  0.3-    230904 H21  0.5+  0.1+
230817 C40  0.3+  0.2-    230819 J22  0.6+  0.1-    230904 K87  0.3+  0.0
230817 C40  0.4-  0.5+    230819 595  0.4+  0.3+    230904 K87  0.6-  0.2+
230817 C40  0.1-  0.1+    230819 G15  1.0+  1.8+    230904 K87  0.4-  0.6+
230817 L01  0.3-  0.1+    230819 595  0.1+  0.7+    230904 K74  0.7-  0.3-
230817 L01  0.1+  0.1-    230819 G15  0.7-  0.3+    230904 K74  0.3+  0.0
230817 L01  0.1+  0.2-    230819 G02  0.4-  2.1+    230905 U52  0.3+  0.6-
230817 I93  0.0   0.4+    230819 G02  0.3-  1.7+    230905 U52  0.3+  0.1-
230817 L01  0.4-  0.2+    230819 595  0.5+  0.7+    230905 U52  0.1-  0.3+
230817 C40  0.3+  0.0     230819 G02  0.6+  1.9+    230905 K74  0.0   0.1-
230817 I93  0.1-  0.2+    230819 246  1.4-  0.3+    230905 K74  0.4+  0.0
230817 L51  0.1-  0.3+    230819 246  0.2-  0.3-    230905 K74  0.1-  0.1-
230817 I93  0.1+  0.0     230819 246 (7.4+  0.6-)   230906 U52  0.1-  0.7-
mailing list